Terminal Aerodrome Forecast
Issued by NWS Pocatello, ID

Home | Current Version | Previous Version | Text Only | Print | Product List | Glossary On
Versions: 1 2 3 4 5 6 7 8 9 10 11 12 13 14 15
000
FTUS45 KPIH 160500
TAFBYI
TAF
KBYI 160520Z 1606/1706 24008KT P6SM SCT150
     FM161900 27011KT P6SM BKN100
     FM170200 23007KT P6SM BKN100=

USA.gov is the U.S. government's official web portal to all federal, state and local government web resources and services.